Back to catalog

STARLINK-2731

AliveCommunicationsVLEO
NORAD 48651·PAYLOAD·🇺🇸 United States

Launched May 26, 2021 from Cape Canaveral Space Force Station

Loading…

Next Passes (next 24 hours)

TLE

FreshSource: CelesTrak SupGP

Epoch: Sep 14, 2026, 20:57 UTC

1 48651C 21044P   26257.87340278 -.00021203  00000+0 -68182-3 0  2570
2 48651  53.1588 313.5253 0001080  89.2802 144.6511 15.31712517    12

Track STARLINK-2731 in real time with AllMySat

Download on the App Store